Precipitable_Water
0.97 0.97 0.97 0.95 0.95 0.95 0.93 0.93 0.93 0.93 0.91 0.91 0.89 0.89 0.89 0.91 0.89 0.91 0.93 0.93 0.95 0.97 0.99 0.99 1.01 1.01 1.03 1.03 1.03 1.03 1.03 1.03 1.03 1.03 1.05 1.05 1.07 1.07 1.07 1.07 1.07 1.07 1.07 1.07 1.07 1.07 1.07 1.05 1.03 1.01 1.01 1.03 1.03 1.01 0.99 0.97 0.97 0.95 0.95 0.93 0.93 0.93 0.93 0.93 0.97 0.99 1.03 1.05 1.07
0.95 0.95 0.95 0.95 0.93 0.93 0.91 0.91 0.91 0.91 0.91 0.91 0.91 0.91 0.91 0.91 0.91 0.91 0.93 0.95 0.95 0.97 0.99 1.01 1.03 1.03 1.03 1.03 1.03 1.03 1.03 1.03 1.03 1.03 1.05 1.05 1.07 1.07 1.07 1.07 1.07 1.07 1.07 1.07 1.09 1.09 1.07 1.05 0.99 0.99 0.99 1.03 1.03 1.03 1.03 1.01 0.99 0.97 0.95 0.93 0.93 0.95 0.95 0.97 0.99 1.01 1.05 1.07 1.09
0.91 0.93 0.93 0.91 0.91 0.89 0.89 0.87 0.87 0.89 0.89 0.89 0.91 0.91 0.91 0.91 0.91 0.93 0.93 0.95 0.97 0.99 1.01 1.03 1.03 1.03 1.03 1.03 1.05 1.05 1.05 1.05 1.05 1.05 1.05 1.05 1.07 1.07 1.07 1.07 1.07 1.07 1.07 1.07 1.05 1.05 1.03 0.99 1.03 1.01 0.99 0.97 0.97 0.97 0.99 1.03 1.01 0.99 0.97 0.95 0.95 0.95 0.95 0.97 1.01 1.05 1.07 1.09 1.09
0.89 0.89 0.89 0.87 0.87 0.85 0.85 0.85 0.85 0.85 0.87 0.89 0.91 0.91 0.91 0.91 0.93 0.93 0.95 0.97 0.99 1.01 1.01 1.03 1.03 1.05 1.05 1.05 1.05 1.05 1.07 1.07 1.07 1.07 1.05 1.05 1.07 1.07 1.07 1.07 1.07 1.07 1.07 1.05 1.03 1.01 1.03 1.11 1.11 1.05 0.97 0.93 0.93 0.93 0.95 0.99 1.01 1.01 0.99 0.97 0.95 0.95 0.97 0.99 1.03 1.05 1.07 1.07 1.07
0.85 0.87 0.85 0.85 0.85 0.83 0.83 0.83 0.83 0.85 0.87 0.89 0.89 0.91 0.91 0.91 0.95 0.95 0.97 0.99 0.99 0.99 1.01 1.03 1.03 1.05 1.05 1.05 1.05 1.05 1.05 1.07 1.07 1.07 1.07 1.07 1.07 1.07 1.07 1.07 1.07 1.09 1.07 1.05 1.05 1.07 1.09 1.13 1.09 1.03 0.95 0.95 0.95 0.99 1.03 1.07 1.05 1.03 0.99 0.95 0.95 0.95 0.97 0.99 1.03 1.05 1.05 1.05 1.05
0.83 0.83 0.83 0.83 0.83 0.83 0.83 0.83 0.83 0.85 0.87 0.89 0.89 0.89 0.89 0.91 0.93 0.95 0.97 0.97 0.97 0.99 1.01 1.03 1.03 1.03 1.03 1.03 1.03 1.05 1.05 1.05 1.07 1.07 1.07 1.07 1.07 1.07 1.07 1.07 1.07 1.07 1.07 1.07 1.09 1.09 1.09 1.09 1.07 1.03 1.01 1.01 1.03 1.07 1.09 1.09 1.07 1.03 0.97 0.93 0.95 0.95 0.97 0.99 1.01 1.03 1.03 1.03 1.01
0.80 0.81 0.81 0.83 0.83 0.81 0.83 0.83 0.83 0.85 0.87 0.89 0.87 0.87 0.89 0.91 0.93 0.95 0.95 0.97 0.99 1.01 1.03 1.03 1.03 1.03 1.03 1.03 1.03 1.03 1.03 1.05 1.07 1.07 1.07 1.07 1.07 1.07 1.05 1.05 1.05 1.05 1.05 1.05 1.07 1.07 1.05 1.05 1.03 1.03 1.03 1.03 1.03 1.03 1.05 1.05 1.03 0.99 0.95 0.93 0.95 0.95 0.97 0.97 0.99 0.99 1.01 1.01 0.99
0.80 0.80 0.80 0.81 0.81 0.81 0.81 0.81 0.83 0.85 0.87 0.87 0.87 0.87 0.89 0.91 0.93 0.95 0.97 0.97 0.99 0.99 1.01 1.03 1.03 1.05 1.03 1.03 1.03 1.03 1.03 1.05 1.05 1.07 1.07 1.09 1.09 1.07 1.05 1.05 1.03 1.03 1.03 1.03 1.05 1.03 1.01 1.01 1.01 1.01 1.01 1.01 0.99 0.99 0.99 0.99 0.97 0.97 0.95 0.95 0.95 0.97 0.97 0.97 0.97 0.97 0.97 0.97 0.93
0.78 0.78 0.80 0.81 0.81 0.81 0.81 0.81 0.83 0.85 0.85 0.87 0.87 0.89 0.89 0.91 0.93 0.95 0.97 0.97 0.99 0.99 1.01 1.01 1.03 1.03 1.03 1.03 1.03 1.03 1.03 1.03 1.05 1.05 1.07 1.09 1.09 1.09 1.07 1.05 1.03 1.01 1.01 1.01 1.01 0.99 0.97 0.97 0.99 0.99 0.99 0.99 0.97 0.97 0.95 0.95 0.95 0.97 0.97 0.99 0.97 0.97 0.97 0.95 0.95 0.95 0.95 0.93 0.91
0.76 0.76 0.78 0.80 0.80 0.81 0.81 0.83 0.83 0.85 0.85 0.87 0.87 0.89 0.91 0.93 0.95 0.95 0.97 0.99 0.99 0.99 1.01 1.01 1.01 1.03 1.03 1.03 1.03 1.03 1.03 1.03 1.03 1.05 1.05 1.07 1.07 1.07 1.07 1.05 1.03 1.01 1.01 1.01 1.01 0.99 0.95 0.95 0.95 0.95 0.95 0.95 0.95 0.95 0.95 0.95 0.95 0.93 0.93 0.95 0.95 0.93 0.91 0.91 0.91 0.93 0.93 0.93 0.93
0.74 0.78 0.80 0.80 0.80 0.81 0.81 0.81 0.83 0.85 0.87 0.87 0.89 0.91 0.93 0.93 0.95 0.97 0.99 0.99 0.99 0.99 0.99 1.01 1.01 1.01 1.01 1.03 1.03 1.03 1.03 1.05 1.05 1.05 1.03 1.05 1.05 1.05 1.03 1.03 1.01 1.01 1.01 0.99 0.99 0.97 0.95 0.91 0.91 0.91 0.91 0.91 0.93 0.91 0.93 0.95 0.91 0.91 0.89 0.89 0.89 0.87 0.87 0.89 0.91 0.93 0.93 0.93 0.91
0.74 0.76 0.80 0.80 0.80 0.81 0.81 0.81 0.83 0.85 0.87 0.87 0.89 0.91 0.91 0.93 0.93 0.95 0.97 0.99 0.97 0.97 0.99 1.01 1.01 1.01 1.01 1.03 1.03 1.05 1.07 1.07 1.05 1.03 1.03 1.01 1.01 1.01 1.01 1.01 0.99 0.99 0.99 0.97 0.97 0.95 0.93 0.91 0.89 0.89 0.89 0.89 0.89 0.89 0.91 0.91 0.87 0.85 0.85 0.85 0.83 0.83 0.85 0.87 0.89 0.91 0.91 0.89 0.89
0.74 0.76 0.78 0.80 0.80 0.81 0.81 0.81 0.81 0.85 0.87 0.87 0.89 0.91 0.91 0.93 0.95 0.95 0.97 0.97 0.97 0.97 0.97 0.99 1.01 1.01 1.01 1.03 1.05 1.05 1.07 1.07 1.05 1.03 1.01 1.01 0.99 0.99 0.99 0.99 0.97 0.97 0.95 0.95 0.93 0.93 0.93 0.91 0.89 0.87 0.87 0.87 0.87 0.87 0.87 0.85 0.85 0.83 0.83 0.81 0.81 0.83 0.83 0.87 0.89 0.89 0.87 0.87 0.85
0.74 0.76 0.78 0.78 0.80 0.80 0.81 0.81 0.81 0.83 0.85 0.87 0.89 0.91 0.91 0.93 0.93 0.95 0.97 0.95 0.95 0.95 0.97 0.97 0.99 1.01 1.03 1.03 1.05 1.05 1.05 1.05 1.03 1.01 1.01 0.99 0.99 0.99 0.97 0.97 0.95 0.93 0.93 0.91 0.91 0.91 0.89 0.89 0.87 0.87 0.85 0.85 0.85 0.85 0.85 0.85 0.85 0.83 0.83 0.83 0.83 0.83 0.83 0.85 0.87 0.87 0.85 0.85 0.85
0.72 0.74 0.78 0.78 0.78 0.80 0.80 0.81 0.81 0.83 0.85 0.87 0.89 0.91 0.91 0.93 0.93 0.95 0.95 0.95 0.95 0.95 0.95 0.97 0.97 1.01 1.05 1.05 1.03 1.03 1.03 1.01 1.01 0.99 0.99 0.97 0.97 0.97 0.97 0.95 0.93 0.91 0.91 0.89 0.89 0.89 0.89 0.87 0.87 0.87 0.85 0.83 0.83 0.83 0.83 0.83 0.83 0.85 0.85 0.85 0.83 0.83 0.85 0.85 0.85 0.85 0.85 0.85 0.85
0.72 0.74 0.76 0.78 0.78 0.78 0.80 0.80 0.81 0.83 0.85 0.87 0.89 0.91 0.91 0.91 0.93 0.95 0.95 0.95 0.95 0.95 0.95 0.97 0.97 1.01 1.03 1.03 1.01 1.01 0.99 0.99 0.97 0.97 0.95 0.95 0.95 0.95 0.93 0.91 0.89 0.89 0.89 0.87 0.87 0.87 0.87 0.87 0.87 0.85 0.85 0.83 0.83 0.83 0.83 0.83 0.83 0.83 0.85 0.85 0.85 0.85 0.85 0.85 0.85 0.85 0.85 0.83 0.83
0.70 0.72 0.74 0.76 0.76 0.78 0.78 0.80 0.81 0.83 0.85 0.87 0.89 0.89 0.91 0.91 0.93 0.93 0.93 0.93 0.93 0.95 0.95 0.95 0.97 0.99 0.99 1.01 0.99 0.99 0.97 0.95 0.95 0.93 0.93 0.91 0.91 0.91 0.89 0.89 0.89 0.89 0.89 0.87 0.85 0.85 0.85 0.85 0.85 0.85 0.85 0.85 0.83 0.83 0.83 0.83 0.83 0.83 0.83 0.85 0.85 0.87 0.87 0.85 0.85 0.85 0.83 0.83 0.83
0.70 0.72 0.74 0.74 0.76 0.76 0.78 0.78 0.80 0.81 0.85 0.85 0.87 0.89 0.91 0.93 0.91 0.91 0.93 0.93 0.93 0.95 0.95 0.95 0.95 0.95 0.97 0.97 0.97 0.95 0.95 0.93 0.91 0.91 0.89 0.89 0.89 0.89 0.87 0.87 0.87 0.89 0.87 0.87 0.85 0.83 0.83 0.85 0.85 0.85 0.85 0.85 0.85 0.83 0.83 0.83 0.83 0.83 0.83 0.83 0.85 0.85 0.87 0.87 0.85 0.85 0.85 0.83 0.83
0.68 0.70 0.72 0.74 0.74 0.76 0.78 0.78 0.80 0.81 0.85 0.87 0.87 0.89 0.91 0.91 0.91 0.91 0.91 0.93 0.95 0.95 0.95 0.93 0.93 0.93 0.93 0.93 0.93 0.93 0.91 0.91 0.89 0.89 0.89 0.89 0.87 0.87 0.85 0.85 0.87 0.87 0.87 0.87 0.85 0.85 0.85 0.85 0.85 0.85 0.85 0.85 0.83 0.83 0.83 0.83 0.83 0.83 0.83 0.83 0.83 0.83 0.85 0.85 0.85 0.85 0.85 0.85 0.85
0.68 0.70 0.72 0.72 0.74 0.76 0.78 0.78 0.80 0.81 0.85 0.87 0.87 0.89 0.89 0.91 0.91 0.91 0.91 0.93 0.93 0.95 0.93 0.93 0.91 0.91 0.91 0.91 0.89 0.89 0.89 0.89 0.89 0.89 0.87 0.89 0.87 0.85 0.85 0.85 0.85 0.87 0.87 0.87 0.85 0.85 0.83 0.83 0.83 0.83 0.83 0.83 0.81 0.81 0.81 0.81 0.81 0.81 0.81 0.83 0.83 0.83 0.83 0.83 0.83 0.83 0.85 0.85 0.85
0.66 0.70 0.72 0.74 0.74 0.76 0.78 0.78 0.80 0.81 0.83 0.85 0.87 0.87 0.89 0.89 0.89 0.89 0.89 0.91 0.93 0.93 0.91 0.91 0.89 0.89 0.87 0.87 0.85 0.87 0.87 0.89 0.89 0.89 0.89 0.87 0.87 0.87 0.85 0.85 0.85 0.85 0.85 0.85 0.83 0.83 0.83 0.83 0.81 0.81 0.81 0.81 0.81 0.81 0.81 0.81 0.81 0.81 0.81 0.81 0.81 0.81 0.83 0.81 0.81 0.83 0.83 0.85 0.85
0.68 0.70 0.72 0.74 0.74 0.76 0.78 0.80 0.80 0.81 0.83 0.83 0.85 0.87 0.87 0.87 0.87 0.89 0.89 0.91 0.91 0.91 0.89 0.89 0.87 0.87 0.85 0.85 0.85 0.85 0.87 0.89 0.89 0.89 0.87 0.87 0.85 0.85 0.85 0.85 0.85 0.83 0.83 0.83 0.83 0.83 0.83 0.81 0.81 0.81 0.81 0.81 0.81 0.81 0.81 0.80 0.80 0.80 0.80 0.80 0.80 0.81 0.81 0.80 0.81 0.81 0.81 0.83 0.83
0.68 0.70 0.72 0.74 0.74 0.76 0.78 0.78 0.80 0.81 0.81 0.83 0.83 0.85 0.85 0.85 0.87 0.87 0.87 0.89 0.89 0.87 0.87 0.87 0.85 0.85 0.85 0.85 0.85 0.85 0.87 0.87 0.85 0.85 0.85 0.85 0.83 0.83 0.83 0.83 0.83 0.83 0.81 0.81 0.83 0.83 0.83 0.83 0.83 0.81 0.81 0.81 0.80 0.80 0.80 0.80 0.80 0.78 0.78 0.78 0.78 0.78 0.78 0.78 0.78 0.80 0.80 0.80 0.81
0.68 0.70 0.72 0.74 0.74 0.76 0.76 0.76 0.78 0.80 0.80 0.81 0.81 0.83 0.83 0.85 0.85 0.85 0.87 0.85 0.87 0.85 0.85 0.85 0.85 0.85 0.85 0.85 0.87 0.87 0.85 0.85 0.83 0.81 0.81 0.81 0.81 0.81 0.81 0.83 0.83 0.83 0.83 0.83 0.83 0.83 0.83 0.83 0.81 0.81 0.80 0.80 0.80 0.80 0.80 0.80 0.80 0.80 0.78 0.78 0.78 0.76 0.76 0.76 0.76 0.78 0.78 0.78 0.80
0.68 0.68 0.70 0.72 0.72 0.74 0.74 0.76 0.76 0.78 0.80 0.80 0.81 0.81 0.81 0.83 0.83 0.83 0.83 0.83 0.83 0.83 0.83 0.83 0.83 0.85 0.85 0.85 0.87 0.85 0.83 0.81 0.81 0.80 0.80 0.80 0.80 0.80 0.81 0.81 0.81 0.83 0.83 0.83 0.83 0.83 0.83 0.81 0.81 0.80 0.80 0.80 0.78 0.78 0.78 0.78 0.78 0.78 0.78 0.78 0.78 0.76 0.74 0.74 0.76 0.76 0.78 0.78 0.78
0.66 0.68 0.68 0.70 0.72 0.72 0.72 0.74 0.76 0.76 0.78 0.80 0.80 0.80 0.81 0.81 0.81 0.81 0.81 0.81 0.81 0.81 0.81 0.83 0.83 0.85 0.85 0.85 0.85 0.83 0.81 0.80 0.80 0.80 0.80 0.78 0.78 0.80 0.80 0.80 0.80 0.81 0.81 0.81 0.81 0.81 0.81 0.81 0.80 0.80 0.80 0.78 0.78 0.76 0.76 0.76 0.76 0.76 0.76 0.76 0.76 0.74 0.74 0.72 0.74 0.74 0.76 0.76 0.76
0.64 0.66 0.68 0.70 0.70 0.72 0.72 0.72 0.76 0.76 0.78 0.78 0.78 0.78 0.80 0.80 0.80 0.81 0.81 0.80 0.80 0.81 0.81 0.83 0.83 0.85 0.85 0.83 0.83 0.81 0.80 0.80 0.80 0.78 0.78 0.78 0.78 0.78 0.78 0.78 0.78 0.80 0.80 0.80 0.80 0.80 0.80 0.80 0.80 0.80 0.80 0.80 0.78 0.76 0.76 0.74 0.74 0.74 0.74 0.74 0.74 0.74 0.74 0.72 0.72 0.74 0.74 0.74 0.74
0.64 0.66 0.68 0.70 0.70 0.70 0.72 0.72 0.74 0.76 0.76 0.76 0.76 0.78 0.78 0.78 0.80 0.80 0.80 0.80 0.80 0.80 0.81 0.81 0.83 0.83 0.81 0.81 0.80 0.80 0.78 0.78 0.78 0.78 0.78 0.78 0.78 0.78 0.78 0.78 0.78 0.78 0.78 0.80 0.80 0.80 0.80 0.80 0.80 0.80 0.78 0.78 0.78 0.76 0.74 0.74 0.74 0.74 0.74 0.74 0.74 0.74 0.72 0.72 0.72 0.72 0.74 0.74 0.74
0.64 0.66 0.68 0.68 0.68 0.70 0.70 0.72 0.74 0.74 0.74 0.76 0.76 0.76 0.78 0.78 0.78 0.78 0.78 0.78 0.78 0.80 0.80 0.80 0.80 0.78 0.78 0.78 0.78 0.78 0.78 0.78 0.78 0.78 0.78 0.76 0.76 0.76 0.76 0.76 0.76 0.78 0.78 0.78 0.78 0.80 0.80 0.78 0.78 0.78 0.76 0.76 0.76 0.76 0.76 0.72 0.72 0.72 0.74 0.74 0.74 0.74 0.72 0.72 0.72 0.74 0.74 0.72 0.74
0.66 0.66 0.66 0.68 0.68 0.68 0.70 0.70 0.72 0.74 0.74 0.74 0.76 0.76 0.76 0.76 0.76 0.76 0.76 0.76 0.76 0.78 0.78 0.78 0.78 0.76 0.76 0.76 0.76 0.76 0.76 0.76 0.76 0.76 0.76 0.74 0.74 0.74 0.74 0.76 0.76 0.76 0.76 0.78 0.78 0.78 0.76 0.76 0.76 0.76 0.74 0.74 0.74 0.74 0.74 0.74 0.72 0.72 0.72 0.72 0.72 0.72 0.72 0.72 0.74 0.74 0.72 0.72 0.72
0.66 0.66 0.66 0.66 0.68 0.68 0.70 0.70 0.72 0.74 0.74 0.74 0.74 0.74 0.74 0.74 0.74 0.74 0.74 0.74 0.76 0.76 0.78 0.76 0.76 0.76 0.76 0.76 0.76 0.76 0.74 0.74 0.74 0.74 0.74 0.72 0.72 0.72 0.74 0.74 0.74 0.74 0.76 0.76 0.76 0.76 0.76 0.76 0.74 0.74 0.74 0.74 0.72 0.72 0.72 0.72 0.72 0.72 0.72 0.72 0.72 0.72 0.72 0.72 0.72 0.72 0.72 0.72 0.70
0.66 0.66 0.66 0.66 0.66 0.68 0.68 0.70 0.72 0.72 0.72 0.72 0.72 0.72 0.72 0.72 0.72 0.72 0.72 0.74 0.74 0.74 0.74 0.74 0.74 0.74 0.74 0.74 0.74 0.74 0.74 0.72 0.72 0.72 0.72 0.72 0.72 0.72 0.72 0.72 0.72 0.74 0.74 0.74 0.74 0.74 0.74 0.74 0.74 0.74 0.72 0.72 0.72 0.72 0.70 0.70 0.70 0.70 0.70 0.70 0.72 0.72 0.72 0.72 0.72 0.72 0.70 0.70 0.66
0.66 0.66 0.66 0.66 0.66 0.66 0.68 0.68 0.70 0.70 0.70 0.70 0.70 0.70 0.70 0.70 0.70 0.72 0.72 0.72 0.72 0.72 0.72 0.72 0.72 0.72 0.72 0.70 0.72 0.72 0.72 0.72 0.72 0.72 0.72 0.72 0.72 0.72 0.72 0.72 0.72 0.72 0.74 0.74 0.74 0.74 0.74 0.74 0.72 0.72 0.72 0.72 0.70 0.70 0.70 0.70 0.68 0.68 0.68 0.68 0.70 0.70 0.70 0.70 0.70 0.68 0.68 0.66 0.60
0.66 0.64 0.64 0.64 0.66 0.66 0.66 0.68 0.68 0.68 0.68 0.68 0.68 0.68 0.68 0.70 0.70 0.70 0.70 0.70 0.70 0.70 0.70 0.70 0.70 0.70 0.70 0.70 0.70 0.70 0.70 0.70 0.70 0.70 0.70 0.72 0.70 0.70 0.70 0.70 0.70 0.72 0.72 0.72 0.72 0.72 0.72 0.72 0.72 0.72 0.72 0.72 0.70 0.68 0.68 0.68 0.68 0.66 0.66 0.66 0.68 0.68 0.68 0.66 0.66 0.64 0.62 0.60 0.54
0.64 0.64 0.64 0.64 0.64 0.64 0.64 0.66 0.66 0.66 0.66 0.66 0.66 0.66 0.68 0.68 0.68 0.68 0.68 0.68 0.70 0.70 0.70 0.70 0.70 0.70 0.70 0.70 0.70 0.70 0.68 0.68 0.70 0.70 0.70 0.70 0.68 0.68 0.68 0.68 0.70 0.70 0.70 0.70 0.72 0.72 0.72 0.72 0.72 0.72 0.72 0.70 0.68 0.68 0.66 0.66 0.64 0.64 0.64 0.64 0.64 0.62 0.62 0.62 0.60 0.58 0.56 0.52 0.46
0.64 0.62 0.62 0.62 0.62 0.64 0.64 0.64 0.64 0.64 0.64 0.64 0.64 0.66 0.66 0.66 0.66 0.68 0.68 0.68 0.68 0.68 0.68 0.68 0.68 0.68 0.68 0.68 0.68 0.68 0.68 0.68 0.68 0.68 0.68 0.68 0.66 0.66 0.66 0.66 0.66 0.66 0.66 0.68 0.70 0.70 0.70 0.70 0.70 0.72 0.70 0.70 0.68 0.66 0.66 0.64 0.62 0.60 0.60 0.60 0.58 0.58 0.56 0.56 0.54 0.52 0.50 0.42 0.42
0.62 0.62 0.62 0.62 0.62 0.62 0.62 0.62 0.62 0.62 0.62 0.64 0.64 0.64 0.64 0.64 0.64 0.66 0.66 0.66 0.66 0.66 0.66 0.66 0.66 0.66 0.66 0.66 0.66 0.66 0.66 0.66 0.66 0.66 0.66 0.66 0.66 0.64 0.64 0.64 0.64 0.64 0.66 0.66 0.68 0.68 0.68 0.70 0.70 0.70 0.70 0.70 0.68 0.66 0.64 0.60 0.58 0.58 0.56 0.56 0.54 0.52 0.52 0.50 0.48 0.46 0.44 0.42 0.40
0.62 0.62 0.62 0.60 0.60 0.60 0.62 0.62 0.62 0.62 0.62 0.62 0.62 0.64 0.64 0.64 0.64 0.64 0.64 0.66 0.66 0.64 0.64 0.64 0.64 0.66 0.66 0.66 0.66 0.66 0.66 0.66 0.64 0.64 0.62 0.62 0.62 0.62 0.62 0.62 0.62 0.64 0.64 0.66 0.66 0.68 0.68 0.70 0.70 0.70 0.68 0.68 0.66 0.64 0.62 0.56 0.54 0.54 0.52 0.52 0.50 0.48 0.48 0.46 0.44 0.44 0.42 0.40 0.40
0.62 0.62 0.62 0.60 0.60 0.60 0.60 0.60 0.60 0.60 0.60 0.60 0.62 0.62 0.62 0.62 0.62 0.64 0.64 0.64 0.64 0.64 0.64 0.64 0.64 0.64 0.64 0.64 0.64 0.64 0.62 0.62 0.62 0.62 0.60 0.60 0.60 0.60 0.60 0.60 0.62 0.62 0.64 0.66 0.66 0.68 0.68 0.68 0.68 0.68 0.68 0.66 0.64 0.62 0.60 0.56 0.54 0.52 0.50 0.50 0.48 0.46 0.46 0.44 0.44 0.42 0.40 0.38 0.38
0.62 0.62 0.62 0.60 0.60 0.60 0.60 0.60 0.60 0.60 0.60 0.60 0.60 0.60 0.62 0.62 0.62 0.64 0.64 0.64 0.64 0.64 0.64 0.62 0.62 0.62 0.62 0.62 0.60 0.60 0.60 0.60 0.60 0.60 0.60 0.60 0.60 0.60 0.60 0.60 0.62 0.62 0.64 0.66 0.66 0.68 0.68 0.68 0.68 0.66 0.66 0.64 0.62 0.60 0.58 0.54 0.52 0.50 0.50 0.48 0.46 0.44 0.42 0.42 0.40 0.38 0.36 0.36 0.36
0.62 0.62 0.60 0.60 0.60 0.60 0.60 0.58 0.60 0.60 0.60 0.60 0.60 0.60 0.62 0.62 0.62 0.62 0.62 0.62 0.62 0.62 0.62 0.62 0.60 0.60 0.60 0.60 0.58 0.58 0.58 0.58 0.58 0.58 0.60 0.60 0.60 0.60 0.60 0.60 0.62 0.62 0.64 0.66 0.66 0.68 0.68 0.66 0.66 0.64 0.64 0.62 0.60 0.58 0.54 0.52 0.50 0.48 0.46 0.44 0.44 0.42 0.40 0.38 0.38 0.36 0.34 0.34 0.36
Wind_Speed
25 25 25 25 25 25 24 24 24 24 24 24 24 24 23 23 23 22 22 22 22 22 22 22 22 22 22 23 23 23 23 24 24 24 24 24 25 25 26 26 26 27 27 27 26 26 26 26 26 26 26 26 26 26 26 26 26 26 26 26 27 27 27 27 28 28 29 29 30
25 25 25 25 25 24 24 24 24 24 24 24 24 23 23 23 22 22 22 22 21 21 21 21 22 22 22 22 23 23 23 23 24 24 24 24 25 25 26 26 26 27 27 27 27 26 26 26 26 26 26 26 26 26 26 26 26 26 26 26 27 27 27 28 28 29 29 30 30
25 25 24 24 24 24 23 23 23 23 23 23 23 23 23 23 22 22 22 21 21 21 21 21 21 21 21 22 22 22 23 23 23 23 24 24 24 25 25 26 26 26 26 26 26 26 26 26 26 26 26 26 26 26 26 26 26 26 26 26 27 27 27 28 28 29 29 30 30
24 24 24 23 23 23 23 22 22 22 22 22 22 22 22 22 22 22 21 21 21 21 21 21 21 21 21 21 21 22 22 22 23 23 23 24 24 24 25 25 25 25 26 26 26 25 25 25 26 26 26 25 25 25 26 26 26 26 26 26 27 27 28 28 28 28 29 29 29
23 23 23 22 22 22 22 21 21 21 21 21 22 22 22 22 22 21 21 21 21 21 21 20 20 20 20 21 21 21 21 22 22 22 23 23 24 24 24 24 25 25 25 25 25 25 24 25 25 26 25 25 25 25 26 26 26 27 27 26 27 28 28 29 29 28 28 29 29
22 22 22 21 21 21 21 21 21 20 20 20 21 21 21 21 21 21 21 21 21 21 21 21 20 20 20 20 21 21 21 21 21 22 22 23 23 23 23 24 24 24 25 25 25 24 24 24 25 25 26 25 25 25 25 26 26 26 27 27 27 28 29 29 29 29 28 28 29
22 21 21 21 21 21 20 20 20 20 20 20 20 20 20 20 20 20 20 20 20 20 21 21 21 20 20 20 20 20 20 21 21 21 22 22 22 22 23 23 24 24 24 24 24 24 24 24 25 25 25 25 25 25 25 25 26 26 27 27 27 28 28 29 29 29 29 29 29
21 21 21 20 20 20 20 19 19 19 19 19 19 19 19 19 19 19 20 20 20 20 20 20 20 20 20 20 20 20 20 20 21 21 21 21 22 22 22 22 23 23 23 24 24 24 24 24 24 24 24 24 24 24 25 25 25 26 26 27 27 27 27 28 28 29 29 29 29
21 20 20 20 20 19 19 19 18 18 18 18 18 18 18 18 19 19 19 19 19 19 20 20 20 19 19 19 19 19 19 20 20 20 20 21 21 21 22 22 22 22 23 23 23 23 23 23 23 23 23 23 23 24 24 25 25 26 26 26 27 27 28 28 28 28 28 28 28
20 20 20 20 19 19 18 18 18 18 18 18 18 18 18 18 18 18 18 19 19 19 19 19 19 18 18 18 19 19 19 19 19 19 19 20 20 20 20 21 21 21 21 22 22 22 22 22 22 22 22 22 23 23 24 24 25 25 26 26 27 27 27 27 27 27 27 27 27
20 20 19 19 19 18 18 17 17 17 17 17 17 17 17 17 18 18 18 18 18 18 18 18 17 17 18 18 18 18 18 18 18 18 18 18 19 19 19 19 20 20 20 20 20 20 20 21 21 21 21 22 22 23 23 24 24 24 25 25 25 26 26 26 26 26 26 27 27
19 19 19 18 18 17 17 17 16 16 16 16 16 16 16 17 17 17 17 17 17 17 17 17 17 17 17 17 17 17 17 17 17 16 16 16 17 17 18 18 19 19 19 19 19 19 19 20 20 21 21 22 22 23 23 23 23 23 24 24 24 25 25 25 25 26 26 26 27
19 18 18 18 17 17 16 16 16 16 16 16 16 16 16 16 16 16 16 16 16 16 15 15 16 16 16 16 15 15 15 15 15 14 14 14 15 16 17 17 17 18 18 18 18 19 19 20 20 21 21 22 22 22 23 23 23 23 23 23 24 24 24 24 25 25 26 26 26
18 18 18 17 17 16 16 16 15 15 15 15 15 15 15 15 15 15 15 15 14 14 14 14 14 14 14 14 13 13 13 13 13 13 13 13 14 14 15 16 16 16 17 17 18 18 19 19 20 20 21 21 22 22 22 22 23 23 23 23 23 23 24 24 24 25 25 25 26
18 18 17 17 16 16 16 15 15 15 15 15 15 14 14 14 14 14 14 13 13 13 12 12 12 12 12 12 11 11 11 11 12 12 12 12 13 13 14 14 15 15 16 17 18 18 19 19 20 20 20 21 21 21 22 22 22 22 23 23 23 23 23 24 24 24 25 25 25
18 17 17 17 16 16 16 15 15 15 15 14 14 14 13 13 12 12 12 12 11 11 11 11 11 11 11 10 10 10 11 11 11 12 12 12 13 13 13 13 14 15 16 17 17 18 19 19 19 20 20 20 20 21 21 21 22 22 22 22 23 23 23 23 24 24 25 25 25
17 17 17 16 16 16 15 15 15 14 14 13 13 13 12 12 11 11 11 11 11 11 10 10 10 10 10 10 10 10 11 11 11 12 12 12 12 13 13 13 14 15 15 16 17 17 18 18 19 19 19 20 20 20 21 21 21 22 22 22 23 23 23 24 24 24 25 25 25
17 17 17 16 16 16 15 15 14 14 13 13 12 12 11 11 11 11 11 11 11 10 10 10 10 10 10 10 10 10 11 11 11 12 12 12 12 12 13 13 14 14 15 15 16 16 17 17 18 18 19 19 20 20 21 21 22 22 23 23 23 23 23 24 24 24 25 25 25
17 16 16 16 16 15 15 14 13 13 12 12 12 11 11 11 11 10 10 10 10 10 10 9 9 10 10 10 10 10 10 10 11 11 11 11 12 12 13 13 13 14 14 15 15 16 16 17 18 18 19 19 20 21 21 22 22 23 23 23 24 24 24 24 25 25 25 25 26
16 16 16 16 15 15 14 14 13 12 12 11 11 11 10 10 10 10 10 10 10 10 9 9 9 9 10 10 10 10 10 10 10 10 11 11 11 12 12 13 13 14 14 15 15 16 17 17 18 19 19 20 20 21 21 22 22 23 23 24 24 24 25 25 25 26 26 26 26
16 16 15 15 15 14 14 13 12 12 11 11 11 10 10 10 10 10 10 9 9 9 9 9 9 9 9 10 10 9 10 10 10 10 10 11 11 11 12 12 13 14 14 15 16 17 17 18 18 19 19 20 20 21 21 22 22 23 23 24 24 24 25 25 25 26 26 26 26
16 15 15 15 14 14 13 12 12 11 11 11 10 10 10 9 9 9 9 9 9 9 9 9 9 9 9 9 9 9 9 10 10 10 10 10 11 11 12 12 13 14 15 16 16 17 17 18 18 18 19 19 20 20 21 21 22 22 23 23 24 24 24 24 25 25 25 25 25
15 15 14 14 14 13 13 12 12 11 11 10 10 9 9 9 9 9 8 9 9 8 8 9 9 9 9 9 9 9 9 9 10 10 10 11 11 11 12 13 14 14 15 16 16 16 17 17 18 18 19 19 20 20 21 21 22 22 22 23 23 23 24 24 24 24 25 25 25
15 14 14 14 13 13 12 12 11 11 10 10 9 9 9 9 8 8 8 8 8 8 8 8 8 8 8 8 8 9 9 9 10 10 10 11 11 12 13 13 14 15 15 16 16 16 17 17 18 19 20 20 20 21 21 22 22 22 22 22 23 23 23 23 24 24 24 24 24
14 14 14 14 13 13 12 12 11 11 10 10 9 9 9 8 8 8 8 8 8 8 8 8 8 8 8 8 9 9 9 9 10 10 11 11 12 12 13 14 14 15 15 16 16 17 18 18 19 20 20 21 21 21 21 22 22 22 22 23 23 23 23 23 24 24 24 24 24
15 14 14 14 13 13 12 12 11 11 10 10 9 9 8 8 8 8 8 8 8 8 8 8 8 8 8 9 9 9 9 10 10 10 11 11 12 13 13 14 15 15 16 16 17 17 18 19 19 20 20 21 21 21 21 22 22 22 23 23 23 23 23 23 24 24 24 24 24
15 15 14 14 13 13 12 12 11 11 10 10 9 9 8 8 8 8 8 8 8 8 7 7 8 8 9 9 9 9 9 10 10 11 11 12 12 13 14 14 15 15 16 16 17 17 18 18 19 19 20 20 21 21 21 22 22 23 23 23 23 23 23 23 23 24 24 24 24
15 15 14 14 13 13 12 12 11 10 10 10 9 9 8 8 8 8 8 8 8 8 7 8 8 9 9 9 9 9 10 10 11 11 11 12 12 13 14 15 15 16 16 17 17 18 18 19 19 20 20 21 21 21 21 22 22 22 23 23 23 23 23 23 24 24 24 23 23
15 15 14 14 13 13 12 11 11 10 10 9 9 9 8 8 8 8 8 8 8 8 8 8 9 9 9 9 10 10 10 11 11 12 12 12 13 14 14 15 16 16 17 17 18 18 19 19 20 20 21 21 21 21 21 22 22 22 22 23 23 23 23 23 24 24 23 23 23
15 15 14 14 13 13 12 11 11 10 10 9 9 8 8 8 8 8 8 8 8 8 8 9 9 9 9 10 10 11 11 11 12 12 13 13 14 14 15 16 16 17 17 18 18 19 19 20 20 20 21 21 21 21 21 22 22 22 22 23 23 23 23 23 23 23 23 23 23
15 15 14 14 13 12 12 11 10 10 9 9 9 8 8 8 8 8 8 8 8 8 8 9 9 9 10 10 11 11 11 12 12 13 13 14 14 15 16 17 17 18 18 19 19 19 20 20 20 20 20 20 21 21 21 22 22 22 22 23 23 23 23 23 23 23 23 22 22
15 15 14 14 13 12 12 11 10 10 9 9 8 8 8 8 8 8 8 8 8 8 8 9 9 9 10 10 11 11 12 12 12 13 14 14 15 16 16 17 18 18 19 19 19 20 20 20 20 20 20 20 21 21 21 22 22 22 22 22 22 23 23 23 22 22 22 22 22
15 15 14 13 13 12 11 11 10 9 9 8 8 8 8 8 8 8 8 8 8 8 9 9 9 10 10 11 11 11 12 12 13 14 14 15 16 16 17 17 18 18 19 19 19 20 20 20 20 20 20 20 21 21 21 22 22 22 22 22 22 22 22 22 22 22 22 22 22
15 14 14 13 13 12 11 10 10 9 9 9 8 8 8 8 8 8 8 8 8 8 9 9 9 10 10 11 11 12 12 13 14 14 15 16 16 17 17 18 18 18 19 19 19 20 20 20 20 20 20 20 21 21 22 22 22 22 22 22 22 22 21 21 21 22 22 22 22
15 14 14 13 12 12 11 10 10 9 9 9 8 8 8 8 8 8 8 8 8 8 9 9 10 10 10 11 11 12 13 13 14 15 16 16 17 17 17 18 18 18 19 19 19 19 20 20 20 20 20 20 21 21 22 22 22 22 22 21 21 21 21 21 21 21 21 22 22
15 14 14 13 12 11 11 10 10 9 9 9 9 8 8 8 8 8 8 8 8 8 9 9 9 10 10 11 12 12 13 14 14 15 16 16 17 17 17 18 18 18 19 19 19 19 20 20 20 20 20 20 21 21 22 22 22 21 21 21 20 20 20 20 21 21 21 22 22
15 14 13 13 12 11 11 10 10 10 9 9 9 8 8 8 8 8 8 8 8 8 8 9 9 10 11 11 12 13 13 14 15 15 16 16 17 17 17 17 18 18 18 19 19 19 19 20 19 20 20 20 21 21 21 21 21 21 20 20 20 20 20 20 21 21 21 22 22
14 14 13 12 12 11 11 10 10 9 9 9 8 8 8 7 7 7 8 8 8 8 9 9 10 10 11 11 12 13 13 14 15 15 16 16 16 17 17 17 17 18 18 19 19 19 19 19 19 19 20 20 21 21 21 20 20 20 19 19 20 20 20 20 21 21 21 22 22
14 13 13 12 11 11 10 10 10 9 9 8 8 8 7 7 7 7 8 8 8 8 9 9 10 10 11 11 12 13 13 14 15 15 15 16 16 16 17 17 17 17 18 18 19 19 19 19 19 19 20 20 20 20 20 20 19 19 19 19 19 20 20 20 21 21 22 22 22
14 13 12 12 11 11 10 10 9 9 9 8 8 7 7 7 7 7 7 8 8 8 9 9 10 10 11 11 12 12 13 14 14 15 15 15 16 16 16 16 17 17 18 18 19 19 19 19 19 19 19 19 19 19 19 19 19 19 19 19 20 20 20 21 21 21 22 22 23
13 13 12 12 11 11 10 10 9 9 8 8 7 7 7 7 7 7 7 8 8 8 9 9 10 10 11 11 12 12 13 13 14 14 15 15 15 16 16 16 17 17 18 18 18 19 18 18 18 18 19 19 19 19 19 19 19 19 19 19 20 20 21 21 21 22 22 23 24
Wind_Direction
241 242 243 244 246 247 248 249 250 251 252 253 254 256 257 259 260 262 263 263 263 264 263 264 263 263 263 262 261 260 260 260 260 260 260 260 261 262 263 263 264 264 264 264 265 265 266 267 269 270 270 271 271 272 273 274 274 275 275 275 276 276 276 276 276 275 274 273 273
241 243 244 245 246 248 249 250 251 251 253 254 255 256 258 259 260 261 262 262 263 263 263 264 263 263 263 262 262 261 261 261 261 261 261 262 262 263 264 265 265 265 265 265 265 266 267 268 269 270 271 273 274 274 274 275 275 275 276 276 277 277 277 277 277 277 276 275 275
242 243 244 245 246 247 248 250 251 251 253 254 255 257 258 259 260 261 261 262 262 262 263 264 264 264 264 264 263 263 263 263 262 262 262 263 263 264 265 266 266 266 266 266 267 267 268 269 270 271 273 274 274 274 274 275 275 276 276 277 278 278 278 278 278 278 278 278 276
241 242 243 244 245 246 248 249 250 251 252 254 255 256 257 258 259 260 260 261 261 261 262 263 264 264 265 264 264 264 264 264 264 263 263 264 264 265 265 266 266 266 266 267 267 268 269 270 272 273 274 274 274 274 275 275 276 277 277 278 279 279 279 279 279 279 279 279 277
240 241 242 243 244 245 248 249 250 251 252 254 255 256 256 257 258 259 260 260 260 261 261 263 264 265 265 265 265 265 265 265 265 265 265 265 265 265 266 266 266 267 267 268 268 269 270 271 272 273 274 274 275 276 276 277 277 278 278 279 279 279 279 279 279 279 279 278 277
238 239 241 243 244 246 248 249 250 250 252 254 254 255 256 257 258 259 259 259 260 260 261 262 264 265 265 265 265 265 266 266 266 266 265 265 266 266 266 266 266 268 269 270 270 270 271 271 272 274 275 276 277 277 278 277 277 278 279 280 280 280 280 280 280 280 279 278 276
237 239 240 242 243 245 248 249 250 251 252 253 253 254 255 256 257 257 258 258 259 260 262 263 263 264 264 264 265 265 266 266 266 266 266 266 266 266 265 266 267 268 269 270 272 273 274 275 276 277 277 278 279 279 278 277 277 279 280 281 282 282 282 281 281 280 279 277 276
238 239 240 242 243 245 247 248 249 250 251 253 253 253 254 256 256 257 257 258 260 261 262 263 263 263 263 264 264 265 266 266 266 266 267 267 267 266 266 267 268 269 270 271 273 274 276 278 279 280 281 282 282 281 280 279 279 280 281 282 283 283 282 282 282 281 280 278 277
238 239 241 242 243 245 246 247 248 249 250 252 252 253 254 255 256 256 257 258 260 261 262 263 263 263 263 263 264 264 265 265 266 266 267 268 268 268 269 270 271 272 272 273 274 276 277 279 281 283 284 284 284 283 282 281 281 281 281 282 282 283 283 283 282 281 280 279 278
238 239 240 241 243 244 245 246 246 248 249 251 252 253 254 255 255 256 257 259 260 261 262 262 262 262 262 263 264 264 265 265 266 267 268 269 270 271 272 273 274 275 276 276 277 278 279 281 282 283 283 284 284 284 284 284 283 283 283 283 284 284 285 284 283 282 281 280 279
237 238 239 240 241 242 243 244 246 247 249 250 252 253 253 254 255 256 257 259 260 260 260 261 261 261 262 264 265 265 265 266 267 268 269 270 271 273 274 275 276 277 278 279 280 281 281 282 282 282 282 283 283 284 284 284 284 284 284 285 286 286 286 286 285 284 282 281 280
236 236 237 238 239 240 241 243 245 247 248 250 251 252 253 253 254 255 257 257 258 258 259 260 260 261 263 265 265 266 267 268 269 270 271 272 273 274 275 275 276 277 278 280 281 282 282 281 281 281 281 281 282 283 283 283 283 283 284 285 285 286 287 287 286 285 284 282 281
234 234 235 236 237 238 240 242 245 246 248 249 250 251 252 253 253 254 255 255 255 256 258 259 260 262 264 265 266 267 269 270 271 272 273 274 274 275 276 277 277 278 279 280 280 281 280 280 280 279 280 280 281 282 283 283 283 283 283 284 285 286 286 287 286 286 286 285 284
232 232 233 234 234 236 238 241 244 246 247 248 249 250 251 252 252 252 252 252 253 254 256 258 260 262 263 264 266 267 269 271 272 272 273 274 275 277 277 278 278 278 279 279 280 279 279 280 280 280 280 281 282 283 284 285 285 285 285 284 285 285 286 286 286 286 286 286 285
230 230 230 231 232 235 237 240 243 246 247 247 248 248 249 250 250 250 249 249 249 251 254 257 260 262 263 264 265 267 268 270 271 272 273 273 275 276 277 277 278 278 278 279 279 279 279 280 281 281 282 282 283 284 285 286 287 288 287 286 285 285 285 285 285 285 285 285 285
227 228 228 229 231 233 237 240 243 245 245 245 245 245 245 246 246 246 245 245 247 249 253 256 259 261 263 265 265 266 267 268 269 270 272 272 274 275 276 276 277 278 278 279 279 280 280 281 282 283 284 284 285 286 287 288 289 290 290 289 288 287 286 285 285 285 285 285 284
225 226 226 228 230 232 236 239 242 242 242 240 240 240 240 241 242 242 242 243 246 249 252 255 258 261 263 265 266 266 266 267 268 269 270 272 273 275 276 277 278 279 279 280 281 282 283 284 285 286 286 287 287 288 288 289 290 291 291 292 291 290 289 288 286 286 285 285 285
223 224 225 226 229 231 234 236 237 237 236 234 235 235 237 238 238 239 241 243 246 250 252 254 257 260 262 264 265 266 266 266 267 268 270 272 274 275 277 278 280 281 282 283 283 285 286 287 288 288 289 289 289 289 290 290 290 291 291 292 292 292 292 291 290 289 287 287 286
221 222 224 225 227 229 230 231 231 230 230 230 231 233 234 236 237 238 241 244 248 251 253 254 257 259 261 262 264 266 267 267 268 269 271 273 275 277 278 280 282 284 285 286 287 288 289 289 290 290 290 290 291 291 291 291 291 291 291 291 292 292 292 292 292 291 290 289 287
220 221 222 224 225 226 226 225 224 225 226 227 229 231 232 234 236 238 241 245 249 252 254 255 256 258 259 260 263 266 268 270 271 272 273 275 276 278 280 281 284 286 288 289 290 291 291 291 291 291 291 291 291 292 292 292 292 292 292 292 291 291 291 291 291 291 291 290 289
218 219 220 221 221 221 220 219 220 221 223 225 227 228 231 233 235 238 242 246 249 252 254 254 255 255 256 258 261 265 269 272 274 275 276 277 278 279 281 283 286 288 290 291 292 293 292 292 291 291 291 291 292 293 293 294 293 293 293 292 292 292 291 291 291 291 290 290 289
216 217 217 217 216 215 215 216 217 219 220 222 224 226 229 232 235 238 242 245 248 250 252 252 252 253 255 257 260 265 270 273 275 277 279 281 282 284 285 288 290 291 293 293 293 293 292 292 292 292 292 293 294 295 295 295 295 295 294 294 293 293 292 292 291 291 291 290 289
213 213 213 212 211 210 211 213 214 216 218 219 222 224 227 231 234 237 240 244 247 249 250 251 252 254 256 260 264 268 272 275 277 279 282 284 287 289 291 293 294 294 294 293 294 294 294 294 295 295 296 296 297 297 297 297 297 296 295 294 294 293 293 293 293 292 291 291 290
209 209 208 207 206 207 208 210 212 213 215 216 219 222 225 229 233 237 240 243 246 248 250 252 254 257 260 265 269 272 274 276 278 280 283 286 289 292 294 296 296 295 294 295 295 296 296 297 298 299 299 299 298 298 298 298 298 297 296 295 295 294 294 294 294 293 292 291 291
205 204 203 203 203 205 206 208 209 210 212 214 217 220 224 227 232 236 240 242 245 248 251 254 258 262 266 269 272 274 276 277 279 281 284 287 290 293 294 296 296 296 297 297 297 297 298 299 299 300 300 299 299 298 299 299 299 299 298 297 296 296 295 295 295 294 293 292 292
201 199 199 200 201 203 204 205 206 208 210 213 217 220 223 227 231 235 239 241 245 249 253 257 262 266 268 270 272 274 275 277 280 282 286 289 291 292 294 295 296 297 298 298 298 298 298 299 299 300 300 299 299 299 299 299 299 299 298 298 297 296 296 295 295 295 294 293 292
197 197 197 199 200 201 202 203 205 207 210 213 217 220 224 228 232 235 239 242 246 251 255 260 264 267 270 271 272 272 274 277 280 284 287 290 291 293 294 296 297 298 299 299 298 297 298 299 299 300 300 300 299 299 299 299 299 299 299 298 297 297 296 296 295 295 294 294 293
195 195 196 197 198 199 201 202 204 207 211 214 217 221 224 228 231 235 240 243 247 251 256 261 264 268 270 272 272 273 275 278 281 285 287 289 291 292 294 296 298 299 299 299 298 298 298 299 299 300 300 300 301 300 300 300 300 299 299 298 298 297 297 297 296 296 295 294 294
193 194 195 196 197 198 200 202 204 208 212 216 219 222 225 229 232 237 241 245 249 253 258 262 265 268 270 272 273 275 277 280 283 286 288 289 291 292 294 297 298 299 299 298 298 299 299 300 300 301 301 301 301 301 301 301 301 300 300 299 299 298 298 297 297 296 295 295 294
193 193 194 195 196 197 199 202 205 209 213 218 221 224 227 230 234 239 243 247 251 256 260 264 266 268 270 272 274 277 279 282 285 287 289 290 292 293 295 296 298 299 299 299 299 300 300 301 302 302 302 302 303 302 302 302 302 301 301 300 299 299 298 298 297 296 296 295 295
192 193 193 194 195 197 200 203 207 211 215 219 223 226 229 233 236 241 245 249 253 258 262 264 267 269 271 273 276 278 281 284 286 288 289 291 292 294 295 297 299 299 300 300 300 301 302 303 303 304 304 303 304 304 303 303 303 302 302 301 300 299 299 298 297 296 296 296 296
192 192 193 194 196 198 201 204 208 212 216 219 223 227 231 234 239 243 247 250 253 257 261 265 267 270 272 275 277 280 282 285 287 289 290 291 293 295 296 298 299 300 301 301 302 302 303 304 304 304 304 304 304 305 305 304 304 303 302 301 301 300 299 298 298 297 297 297 297
191 192 193 194 196 198 202 205 208 212 216 220 224 227 231 235 239 244 247 250 253 257 261 265 268 271 273 276 279 281 284 286 288 289 290 292 294 295 297 298 299 300 301 302 302 303 303 304 304 304 303 304 304 305 305 305 304 304 303 302 301 300 300 299 299 299 298 298 298
191 192 193 195 197 199 202 206 209 213 216 220 224 227 231 235 239 243 247 251 255 259 263 267 271 274 277 279 282 284 286 288 290 292 293 294 296 298 299 300 301 302 302 302 303 303 303 304 304 304 303 303 304 305 305 305 305 304 303 302 302 301 301 300 300 300 300 300 300
192 193 194 196 198 201 204 207 210 213 216 220 223 228 231 236 240 244 249 254 258 263 267 272 275 278 281 284 286 287 289 291 293 294 296 298 299 301 302 303 304 304 304 303 303 303 304 304 304 304 304 304 305 305 306 305 305 304 304 303 302 302 302 302 302 302 302 302 302
193 194 195 197 199 202 205 208 211 214 217 220 224 228 232 238 243 248 253 258 262 267 271 275 279 281 284 286 289 291 292 293 295 296 298 300 301 303 304 304 305 305 305 305 304 304 304 305 305 305 305 305 305 306 306 306 305 305 304 304 303 303 303 303 303 303 303 303 303
194 195 197 198 201 204 207 209 212 215 218 221 225 229 234 239 246 251 257 261 266 270 274 278 281 284 286 289 291 293 295 297 298 299 300 301 303 304 304 305 305 306 306 306 306 305 305 306 306 305 305 305 306 306 306 306 306 306 305 305 305 305 304 305 305 305 305 305 305
196 197 198 200 202 205 208 210 213 215 218 222 226 231 237 243 249 255 260 265 269 273 277 281 284 287 290 292 294 297 298 299 301 302 303 303 304 305 305 305 306 306 307 307 307 307 307 307 306 306 306 306 306 307 307 307 307 307 306 306 306 306 306 306 307 307 307 307 307
197 198 200 202 203 206 208 211 213 216 219 223 228 234 240 247 253 259 264 270 273 277 280 284 287 290 293 295 297 299 301 302 303 304 305 305 306 306 306 306 307 307 308 308 308 308 308 308 307 306 306 306 307 307 307 308 308 308 307 307 307 307 308 308 308 308 308 308 308
198 200 201 203 205 206 208 210 213 216 220 224 230 236 243 249 256 262 268 273 277 281 284 287 290 293 295 297 299 301 303 304 305 305 306 306 307 307 308 308 308 309 309 309 309 309 309 308 307 307 307 307 308 308 308 308 309 309 308 308 309 309 309 309 310 310 310 310 310
199 200 201 203 205 207 208 210 213 217 221 226 232 238 245 252 258 264 270 275 279 283 287 290 293 295 297 299 301 303 304 305 306 307 307 307 308 308 309 309 310 310 310 310 310 310 309 309 308 308 308 308 309 309 309 309 309 310 310 310 310 311 311 311 311 311 312 312 312